Weather History for KPYM - October, 2012

Change the Weather History Date:

Saturday, October 6, 2012

  Actual Average Record
Temperature  
Mean Temperature 66 °F -  
Max Temperature 77 °F 67 °F 83 °F (1963)
Min Temperature 54 °F 44 °F 28 °F (1998)
Cooling Degree Days 1    
Growing Degree Days 16 (Base 50)    
Moisture  
Dew Point 58 °F    
Average Humidity 82    
Maximum Humidity 94    
Minimum Humidity 54    
Precipitation  
Precipitation 0.04 in - - ()
Sea Level Pressure  
Sea Level Pressure 29.85 in    
Wind  
Wind Speed 6 mph (SW)    
Max Wind Speed 21 mph    
Max Gust Speed 31 mph    
Visibility 6 miles    
Events Rain    
Averages and records for this station are not official NWS values.
T = Trace of Precipitation, MM = Missing Value Source: NWS Daily Summary

Daily Weather History Graph

Daily Weather History Graph

Search for Another Location

Airport or City:

Trip Planner

Search our weather history database for the weather conditions in past years. The results will help you decide how hot, cold, wet, or windy it might be!

Date:

Astronomy

Oct. 06, 2012 Rise Set
Actual Time 6:45 AM EDT 6:15 PM EDT
Civil Twilight 6:17 AM EDT 6:43 PM EDT
Nautical Twilight 5:45 AM EDT 7:15 PM EDT
Astronomical Twilight 5:13 AM EDT 7:47 PM EDT
Moon 10:23 PM EDT (10/6) 12:42 PM EDT (10/6)
Length of Visible Light 12h 25m
Length of Day
11h 29m
Waning Gibbous, 65% of the Moon is Illuminated
Oct 6
Waning Gibbous
Oct 8
Last Quarter
Oct 15
New
Oct 21
First Quarter
Oct 29
Full

Hourly Weather History & Observations

Time (EDT) Temp. Dew Point Humidity Pressure Visibility Wind Dir Wind Speed Gust Speed Precip Events Conditions
12:52 AM 55.9 °F 54.0 °F 93% 29.93 in 4.0 mi Calm Calm - N/A   Clear
1:52 AM 55.9 °F 54.0 °F 93% 29.92 in 6.0 mi Calm Calm - N/A   Clear
2:52 AM 55.9 °F 54.0 °F 93% 29.90 in 5.0 mi Calm Calm - N/A   Clear
3:52 AM 57.9 °F 55.0 °F 90% 29.89 in 6.0 mi Calm Calm - N/A   Clear
4:52 AM 55.9 °F 54.0 °F 93% 29.89 in 3.0 mi Calm Calm - N/A   Clear
5:33 AM 59.0 °F 57.2 °F 94% 29.88 in 2.5 mi Calm Calm - N/A   Clear
5:50 AM 60.8 °F 59.0 °F 94% 29.88 in 2.0 mi Variable 3.5 mph - 0.01 in   Scattered Clouds
5:52 AM 61.0 °F 59.0 °F 93% 29.88 in 2.0 mi Variable 3.5 mph - 0.01 in   Scattered Clouds
5:59 AM 60.8 °F 59.0 °F 94% 29.88 in 1.2 mi SSW 5.8 mph - N/A   Mostly Cloudy
6:29 AM 62.6 °F 60.8 °F 94% 29.87 in 2.0 mi South 5.8 mph - N/A   Overcast
6:52 AM 63.0 °F 61.0 °F 93% 29.88 in 1.8 mi SSW 6.9 mph - N/A   Overcast
7:17 AM 62.6 °F 60.8 °F 94% 29.87 in 2.0 mi South 5.8 mph - N/A   Overcast
8:06 AM 64.4 °F 62.6 °F 94% 29.87 in 1.8 mi SSW 5.8 mph - N/A   Overcast
8:20 AM 64.4 °F 62.6 °F 94% 29.87 in 2.0 mi Variable 6.9 mph - N/A   Overcast
8:40 AM 64.4 °F 62.6 °F 94% 29.87 in 3.0 mi SSW 5.8 mph - N/A   Overcast
8:52 AM 66.0 °F 63.0 °F 90% 29.87 in 4.0 mi SSW 4.6 mph - N/A   Mostly Cloudy
9:07 AM 66.2 °F 64.4 °F 94% 29.86 in 5.0 mi SSW 5.8 mph - N/A   Partly Cloudy
9:52 AM 70.0 °F 63.0 °F 78% 29.86 in 10.0 mi SSW 8.1 mph - N/A   Clear
10:52 AM 73.9 °F 61.0 °F 64% 29.84 in 10.0 mi SSW 13.8 mph - N/A   Clear
11:52 AM 75.0 °F 60.1 °F 60% 29.83 in 10.0 mi SSW 12.7 mph 21.9 mph N/A   Clear
12:52 PM 75.9 °F 60.1 °F 58% 29.79 in 10.0 mi SSW 12.7 mph 24.2 mph N/A   Clear
1:52 PM 77.0 °F 59.0 °F 54% 29.77 in 10.0 mi SW 20.7 mph 31.1 mph N/A   Clear
2:52 PM 75.0 °F 60.1 °F 60% 29.76 in 10.0 mi SW 17.3 mph 26.5 mph N/A   Clear
3:52 PM 73.9 °F 60.1 °F 62% 29.75 in 10.0 mi SW 18.4 mph 31.1 mph N/A   Clear
4:52 PM 72.0 °F 60.1 °F 66% 29.75 in 10.0 mi SW 16.1 mph 26.5 mph N/A   Clear
5:52 PM 69.1 °F 61.0 °F 75% 29.77 in 10.0 mi SSW 12.7 mph 23.0 mph N/A   Scattered Clouds
6:52 PM 69.1 °F 62.1 °F 78% 29.79 in 10.0 mi SSW 16.1 mph 23.0 mph N/A   Mostly Cloudy
7:50 PM 60.8 °F 55.4 °F 82% 29.83 in 9.0 mi WNW 16.1 mph 28.8 mph 0.01 in Rain Light Rain
7:52 PM 60.1 °F 55.0 °F 83% 29.83 in 8.0 mi WNW 15.0 mph 28.8 mph 0.01 in Rain Light Rain
7:59 PM 59.0 °F 53.6 °F 82% 29.84 in 6.0 mi WNW 10.4 mph 25.3 mph 0.02 in Rain Light Rain
8:36 PM 59.0 °F 53.6 °F 82% 29.85 in 10.0 mi West 6.9 mph - 0.02 in   Overcast
8:52 PM 59.0 °F 52.0 °F 78% 29.86 in 10.0 mi West 9.2 mph - 0.02 in   Overcast
9:52 PM 57.0 °F 50.0 °F 77% 29.89 in 10.0 mi WNW 9.2 mph - N/A   Mostly Cloudy
10:52 PM 55.9 °F 48.9 °F 77% 29.91 in 10.0 mi WNW 8.1 mph - N/A   Mostly Cloudy
11:52 PM 54.0 °F 45.0 °F 72% 29.94 in 10.0 mi NW 6.9 mph - N/A   Clear